Location: Santa Barbara
(34.4500°N, 119.7700°W)
Time: 11:49:34
(UTC-07:00)

Cosmos 1892 Rocket - Visible Passes

Search period start: 02 September 2014 00:00
Search period end: 12 September 2014 00:00
Orbit: 608 x 636 km, 82.5° (Epoch: 02 September)

Date Brightness Start Highest point End Pass type
(mag) Time Alt. Az. Time Alt. Az. Time Alt. Az.
02 Sep 6.5 04:52:31 10° SE 04:55:17 16° E 04:58:02 10° NE visible
03 Sep 5.5 05:09:16 10° SSE 05:13:13 32° E 05:17:11 10° NNE visible
04 Sep 4.0 05:26:50 10° S 05:31:16 66° E 05:35:42 10° NNE visible
05 Sep 3.6 05:44:59 10° SSW 05:49:24 60° W 05:53:49 10° N visible
06 Sep 6.2 04:26:53 10° SE 04:29:59 19° E 04:33:04 10° NE visible
06 Sep 4.5 06:03:43 10° SW 06:07:38 29° WNW 06:11:33 10° NNW visible
07 Sep 5.1 04:43:51 10° SSE 04:47:57 37° E 04:52:02 10° NNE visible
08 Sep 3.7 05:02:04 13° S 05:06:00 77° E 05:10:27 10° N visible
09 Sep 6.7 03:45:53 10° E 03:46:47 11° E 03:47:42 10° ENE visible
09 Sep 3.7 05:21:13 20° SSW 05:24:09 51° W 05:28:30 10° N visible
10 Sep 5.9 04:02:59 17° ESE 04:04:41 21° E 04:08:02 10° NE visible
10 Sep 4.6 05:40:15 18° WSW 05:42:24 26° WNW 05:46:07 10° NNW visible
11 Sep 4.7 04:21:56 39° ESE 04:22:40 42° E 04:26:51 10° NNE visible
11 Sep 5.4 05:59:11 11° W 06:00:45 13° WNW 06:02:55 10° NW visible
